,,PA_Meas_PMT16A,,PR_Meas_QMR101_102,,RH_Meas_QMH101,,SR_Meas_QMS101,,TA_Meas_QMH101,,GenWind,,GenWind,
time,status,PA,status,PR,status,RH,status,SR,status,TA,status,DirAvg,status,SpdAvg,
2011-03-09, 00:00:05,VALID,917.635,VALID,0,VALID,94.3398,VALID,0,VALID,18.8045,VALID,10,VALID,0.372656,
2011-03-09, 00:01:05,VALID,917.615,VALID,0,VALID,94.233,VALID,0,VALID,18.8434,VALID,10,VALID,0.293359,
2011-03-09, 00:02:05,VALID,917.619,VALID,0,VALID,94.1797,VALID,0,VALID,18.9229,VALID,10,VALID,0.570703,
2011-03-09, 00:03:05,VALID,917.575,VALID,0,VALID,93.7375,VALID,0.107441,VALID,18.9214,VALID,10,VALID,0.195313,
2011-03-09, 00:04:05,VALID,917.541,VALID,0,VALID,93.12,VALID,0.107441,VALID,18.9034,VALID,10,VALID,0.292969,
2011-03-09, 00:05:05,VALID,917.531,VALID,0,VALID,93.4478,VALID,0,VALID,18.9019,VALID,10,VALID,0.310547,
2011-03-09, 00:06:05,VALID,917.517,VALID,0,VALID,93.9586,VALID,0.107441,VALID,18.9214,VALID,10,VALID,0.353125,
2011-03-09, 00:07:04,VALID,917.512,VALID,0,VALID,94.3169,VALID,0.107441,VALID,19.0008,VALID,10,VALID,0.268359,
2011-03-09, 00:08:04,VALID,917.482,VALID,0,VALID,94.355,VALID,0,VALID,19.0189,VALID,10,VALID,0.0109375,
2011-03-09, 00:09:04,VALID,917.456,VALID,0,VALID,94.0577,VALID,0.107441,VALID,18.9994,VALID,10,VALID,0.217187,
2011-03-09, 00:10:04,VALID,917.448,VALID,0,VALID,93.9967,VALID,0,VALID,19.0203,VALID,10,VALID,0.0945313,
2011-03-09, 00:11:04,VALID,917.381,VALID,0,VALID,94.2712,VALID,0,VALID,19.0384,VALID,10,VALID,0.447266,
2011-03-09, 00:12:04,VALID,917.391,VALID,0,VALID,94.012,VALID,0.107441,VALID,19.0189,VALID,10,VALID,0.0589844,
2011-03-09, 00:13:04,VALID,917.38,VALID,0,VALID,93.3792,VALID,0.107441,VALID,18.9619,VALID,10,VALID,0.864062,
2011-03-09, 00:14:04,VALID,917.377,VALID,0,VALID,93.9815,VALID,0,VALID,18.9214,VALID,10,VALID,0.763281,
2011-03-09, 00:15:04,VALID,917.367,VALID,0,VALID,94.3321,VALID,0.107441,VALID,18.9604,VALID,10,VALID,0.626953,
2011-03-09, 00:16:04,VALID,917.373,VALID,0,VALID,94.2102,VALID,0.107441,VALID,18.9994,VALID,10,VALID,0.653906,
2011-03-09, 00:17:04,VALID,917.378,VALID,0,VALID,93.9281,VALID,0,VALID,19.0203,VALID,10,VALID,0.672266,
2011-03-09, 00:18:04,VALID,917.376,VALID,0,VALID,93.829,VALID,0,VALID,19.0398,VALID,10,VALID,0.5375,
2011-03-09, 00:19:04,VALID,917.41,VALID,0,VALID,93.4021,VALID,0,VALID,19.0593,VALID,10,VALID,0.373047,
2011-03-09, 00:20:04,VALID,917.399,VALID,0,VALID,92.9294,VALID,0,VALID,19.1388,VALID,10,VALID,0.248047,
2011-03-09, 00:21:04,VALID,917.402,VALID,0,VALID,92.6016,VALID,0,VALID,19.1583,VALID,10,VALID,0.382813,
2011-03-09, 00:22:04,VALID,917.404,VALID,0,VALID,92.6169,VALID,0,VALID,19.1388,VALID,10,VALID,0.826953,
2011-03-09, 00:23:04,VALID,917.408,VALID,0,VALID,92.7465,VALID,0,VALID,19.0983,VALID,10,VALID,1.07969,
2011-03-09, 00:24:04,VALID,917.381,VALID,0,VALID,93.0667,VALID,0,VALID,19.0398,VALID,10,VALID,0.916016,
2011-03-09, 00:25:04,VALID,917.368,VALID,0,VALID,93.5698,VALID,0,VALID,19.0413,VALID,10,VALID,1.0125,
2011-03-09, 00:26:04,VALID,917.352,VALID,0,VALID,93.9205,VALID,0,VALID,19.0008,VALID,10,VALID,0.960156,
2011-03-09, 00:27:04,VALID,917.355,VALID,0,VALID,94.1416,VALID,0,VALID,18.9814,VALID,10,VALID,0.913281,
2011-03-09, 00:28:04,VALID,917.35,VALID,0,VALID,94.2635,VALID,0,VALID,18.9828,VALID,10,VALID,0.736719,
2011-03-09, 00:29:04,VALID,917.34,VALID,0,VALID,94.2788,VALID,0,VALID,18.9619,VALID,10,VALID,0.603906,
2011-03-09, 00:30:04,VALID,917.306,VALID,0,VALID,94.2407,VALID,0,VALID,18.9619,VALID,10,VALID,0.539063,
2011-03-09, 00:31:04,VALID,917.32,VALID,0,VALID,94.3855,VALID,0,VALID,18.9424,VALID,10,VALID,0.778125,
2011-03-09, 00:32:04,VALID,917.294,VALID,0,VALID,94.599,VALID,0,VALID,18.9619,VALID,11,VALID,0.866016,
2011-03-09, 00:33:04,VALID,917.276,VALID,0,VALID,94.8887,VALID,0.107441,VALID,18.9619,VALID,10,VALID,0.631641,
2011-03-09, 00:34:04,VALID,917.278,VALID,0,VALID,95.0259,VALID,0.107441,VALID,18.9214,VALID,10,VALID,0.433594,
2011-03-09, 00:35:04,VALID,917.262,VALID,0,VALID,95.0259,VALID,0,VALID,18.9214,VALID,10,VALID,0.378125,
2011-03-09, 00:36:04,VALID,917.291,VALID,0,VALID,94.599,VALID,0,VALID,18.9619,VALID,10,VALID,0.325781,
2011-03-09, 00:37:04,VALID,917.24,VALID,0,VALID,94.0577,VALID,0.107441,VALID,18.9604,VALID,10,VALID,0.327734,
2011-03-09, 00:38:04,VALID,917.274,VALID,0,VALID,93.5088,VALID,0.107441,VALID,19.0189,VALID,10,VALID,0.159766,
2011-03-09, 00:39:04,VALID,917.232,VALID,0,VALID,92.9599,VALID,0.107441,VALID,19.0788,VALID,10,VALID,0.285937,
2011-03-09, 00:40:04,VALID,917.226,VALID,0,VALID,92.4644,VALID,0,VALID,19.1373,VALID,10,VALID,0.142188,
2011-03-09, 00:41:04,VALID,917.213,VALID,0,VALID,92.4415,VALID,0.107441,VALID,19.1554,VALID,10,VALID,0.131641,
2011-03-09, 00:42:04,VALID,917.203,VALID,0,VALID,92.2891,VALID,0,VALID,19.1554,VALID,10,VALID,0.103125,
2011-03-09, 00:43:04,VALID,917.191,VALID,0,VALID,92.2205,VALID,0.107441,VALID,19.1568,VALID,10,VALID,0,
2011-03-09, 00:44:04,VALID,917.162,VALID,0,VALID,92.1823,VALID,0.107441,VALID,19.1568,VALID,10,VALID,0,
2011-03-09, 00:45:04,VALID,917.164,VALID,0,VALID,92.2586,VALID,0.107441,VALID,19.1373,VALID,10,VALID,0,
2011-03-09, 00:46:04,VALID,917.141,VALID,0,VALID,92.3119,VALID,0.107441,VALID,19.0774,VALID,10,VALID,0.398047,
2011-03-09, 00:47:04,VALID,917.123,VALID,0,VALID,92.8075,VALID,0,VALID,19.0593,VALID,10,VALID,0.717188,
2011-03-09, 00:48:04,VALID,917.093,VALID,0,VALID,93.5393,VALID,0,VALID,19.0398,VALID,10,VALID,0.968359,
2011-03-09, 00:49:04,VALID,917.115,VALID,0,VALID,93.951,VALID,0,VALID,19.0008,VALID,10,VALID,0.789453,
2011-03-09, 00:50:04,VALID,917.105,VALID,0,VALID,94.2026,VALID,0,VALID,18.9619,VALID,10,VALID,0.5875,
2011-03-09, 00:51:04,VALID,917.075,VALID,0,VALID,94.4541,VALID,0,VALID,18.9438,VALID,10,VALID,0.437891,
2011-03-09, 00:52:04,VALID,917.089,VALID,0,VALID,94.6295,VALID,0,VALID,18.8839,VALID,10,VALID,0.317578,
2011-03-09, 00:53:04,VALID,917.054,VALID,0,VALID,94.8277,VALID,0,VALID,18.8853,VALID,10,VALID,0.455469,
2011-03-09, 00:54:04,VALID,917.028,VALID,0,VALID,94.9878,VALID,0,VALID,18.8853,VALID,10,VALID,0.492578,
2011-03-09, 00:55:04,VALID,916.997,VALID,0,VALID,95.1783,VALID,0,VALID,18.8658,VALID,10,VALID,0.398438,
2011-03-09, 00:56:04,VALID,916.975,VALID,0,VALID,95.3079,VALID,0,VALID,18.8449,VALID,10,VALID,0.45625,
2011-03-09, 00:57:04,VALID,916.95,VALID,0,VALID,95.3918,VALID,0,VALID,18.8463,VALID,10,VALID,0.0316406,
2011-03-09, 00:58:04,VALID,916.938,VALID,0,VALID,95.4528,VALID,0,VALID,18.8268,VALID,10,VALID,0,
2011-03-09, 00:59:04,VALID,916.903,VALID,0,VALID,95.5214,VALID,0,VALID,18.7864,VALID,10,VALID,0,
2011-03-09, 01:00:04,VALID,916.898,VALID,0,VALID,95.5519,VALID,0,VALID,18.7864,VALID,10,VALID,0,
2011-03-09, 01:01:04,VALID,916.873,VALID,0,VALID,95.6053,VALID,0,VALID,18.8073,VALID,10,VALID,0,
2011-03-09, 01:02:04,VALID,916.867,VALID,0,VALID,95.6053,VALID,0,VALID,18.7864,VALID,10,VALID,0,
2011-03-09, 01:03:04,VALID,916.838,VALID,0,VALID,95.5824,VALID,0,VALID,18.7864,VALID,10,VALID,0,
2011-03-09, 01:04:04,VALID,916.835,VALID,0,VALID,95.5595,VALID,0.107441,VALID,18.7669,VALID,10,VALID,0,
2011-03-09, 01:05:04,VALID,916.83,VALID,0,VALID,95.6129,VALID,0,VALID,18.7864,VALID,10,VALID,0.305469,
2011-03-09, 01:06:04,VALID,916.823,VALID,0,VALID,95.5595,VALID,0,VALID,18.7864,VALID,10,VALID,0.374219,
2011-03-09, 01:07:04,VALID,916.847,VALID,0,VALID,95.4833,VALID,0,VALID,18.7669,VALID,10,VALID,0.25625,
2011-03-09, 01:08:04,VALID,916.849,VALID,0,VALID,95.3994,VALID,0,VALID,18.7669,VALID,10,VALID,0,
2011-03-09, 01:09:04,VALID,916.82,VALID,0,VALID,95.2698,VALID,0,VALID,18.7474,VALID,10,VALID,0.00507812,
2011-03-09, 01:10:04,VALID,916.828,VALID,0,VALID,94.9878,VALID,0,VALID,18.6889,VALID,10,VALID,0.261328,
2011-03-09, 01:11:04,VALID,916.821,VALID,0,VALID,94.5227,VALID,0,VALID,18.5914,VALID,10,VALID,0.959766,
2011-03-09, 01:12:04,VALID,916.812,VALID,0,VALID,94.881,VALID,0,VALID,18.59,VALID,10,VALID,1.25156,
2011-03-09, 01:13:04,VALID,916.789,VALID,0,VALID,94.8963,VALID,0,VALID,18.6304,VALID,10,VALID,1.12109,
2011-03-09, 01:14:04,VALID,916.786,VALID,0,VALID,94.7896,VALID,0,VALID,18.6694,VALID,10,VALID,0.966406,
2011-03-09, 01:15:04,VALID,916.802,VALID,0,VALID,94.5761,VALID,0,VALID,18.7084,VALID,10,VALID,0.844531,
2011-03-09, 01:16:04,VALID,916.766,VALID,0,VALID,94.3321,VALID,0,VALID,18.7084,VALID,10,VALID,0.649609,
2011-03-09, 01:17:04,VALID,916.762,VALID,0,VALID,94.1644,VALID,0,VALID,18.7084,VALID,10,VALID,0.579687,
2011-03-09, 01:18:04,VALID,916.743,VALID,0,VALID,93.9967,VALID,0.107441,VALID,18.6903,VALID,10,VALID,0.684766,
2011-03-09, 01:19:04,VALID,916.726,VALID,0,VALID,94.0196,VALID,0,VALID,18.6694,VALID,10,VALID,0.635156,
2011-03-09, 01:20:04,VALID,916.696,VALID,0,VALID,94.4008,VALID,0,VALID,18.6889,VALID,10,VALID,0.867969,
2011-03-09, 01:21:04,VALID,916.713,VALID,0,VALID,94.881,VALID,0,VALID,18.7084,VALID,10,VALID,0.998828,
2011-03-09, 01:22:04,VALID,916.727,VALID,0,VALID,95.1555,VALID,0,VALID,18.7488,VALID,10,VALID,0.960547,
2011-03-09, 01:23:04,VALID,916.716,VALID,0,VALID,95.3079,VALID,0,VALID,18.7279,VALID,10,VALID,0.833984,
2011-03-09, 01:24:04,VALID,916.696,VALID,0,VALID,95.3613,VALID,0,VALID,18.7084,VALID,10,VALID,0.633594,
2011-03-09, 01:25:04,VALID,916.699,VALID,0,VALID,95.4147,VALID,0,VALID,18.6694,VALID,10,VALID,0.732813,
2011-03-09, 01:26:04,VALID,916.674,VALID,0,VALID,95.468,VALID,0,VALID,18.6304,VALID,10,VALID,0.774219,
2011-03-09, 01:27:04,VALID,916.681,VALID,0,VALID,95.5748,VALID,0.107441,VALID,18.6109,VALID,10,VALID,0.740625,
2011-03-09, 01:28:04,VALID,916.692,VALID,0,VALID,95.6739,VALID,0,VALID,18.572,VALID,10,VALID,0.644141,
2011-03-09, 01:29:04,VALID,916.65,VALID,0,VALID,95.7501,VALID,0,VALID,18.5525,VALID,10,VALID,0.508984,
2011-03-09, 01:30:04,VALID,916.627,VALID,0,VALID,95.8111,VALID,0,VALID,18.533,VALID,10,VALID,0.263672,
2011-03-09, 01:31:04,VALID,916.625,VALID,0,VALID,95.6205,VALID,0,VALID,18.455,VALID,10,VALID,0.0796875,
2011-03-09, 01:32:04,VALID,916.62,VALID,0,VALID,95.3384,VALID,0,VALID,18.3199,VALID,10,VALID,0.247656,
2011-03-09, 01:33:04,VALID,916.591,VALID,0,VALID,95.2851,VALID,0,VALID,18.203,VALID,10,VALID,0.585938,
2011-03-09, 01:34:04,VALID,916.582,VALID,0,VALID,95.7425,VALID,0,VALID,18.2615,VALID,10,VALID,0.692969,
2011-03-09, 01:35:04,VALID,916.551,VALID,0,VALID,95.9941,VALID,0,VALID,18.3004,VALID,10,VALID,0.714063,
2011-03-09, 01:36:04,VALID,916.565,VALID,0,VALID,96.0627,VALID,0,VALID,18.3004,VALID,10,VALID,0.682422,
2011-03-09, 01:37:04,VALID,916.548,VALID,0,VALID,96.1541,VALID,0,VALID,18.3199,VALID,10,VALID,0.683203,
2011-03-09, 01:38:04,VALID,916.501,VALID,0,VALID,96.1923,VALID,0,VALID,18.3394,VALID,10,VALID,0.444922,
2011-03-09, 01:39:04,VALID,916.517,VALID,0,VALID,96.1618,VALID,0,VALID,18.3394,VALID,10,VALID,0.392188,
2011-03-09, 01:40:04,VALID,916.488,VALID,0,VALID,96.116,VALID,0,VALID,18.3394,VALID,10,VALID,0.618359,
2011-03-09, 01:41:04,VALID,916.489,VALID,0,VALID,96.1008,VALID,0,VALID,18.3784,VALID,10,VALID,0.577344,
2011-03-09, 01:42:04,VALID,916.491,VALID,0,VALID,96.0169,VALID,0,VALID,18.3784,VALID,10,VALID,0.566797,
2011-03-09, 01:43:04,VALID,916.475,VALID,0,VALID,95.9712,VALID,0,VALID,18.3979,VALID,10,VALID,0.844922,
2011-03-09, 01:44:04,VALID,916.471,VALID,0,VALID,95.9254,VALID,0.107441,VALID,18.416,VALID,10,VALID,0.622656,
2011-03-09, 01:45:04,VALID,916.434,VALID,0,VALID,95.8873,VALID,0,VALID,18.4355,VALID,10,VALID,0.587891,
2011-03-09, 01:46:04,VALID,916.432,VALID,0,VALID,95.8568,VALID,0,VALID,18.4745,VALID,10,VALID,0.474609,
2011-03-09, 01:47:04,VALID,916.431,VALID,0,VALID,95.773,VALID,0,VALID,18.494,VALID,10,VALID,0.392969,
2011-03-09, 01:48:04,VALID,916.403,VALID,0,VALID,95.6967,VALID,0,VALID,18.5344,VALID,10,VALID,0.224609,
2011-03-09, 01:49:04,VALID,916.404,VALID,0,VALID,95.3689,VALID,0,VALID,18.4745,VALID,10,VALID,0,
2011-03-09, 01:50:04,VALID,916.406,VALID,0,VALID,95.1936,VALID,0,VALID,18.455,VALID,10,VALID,0,
2011-03-09, 01:51:04,VALID,916.39,VALID,0,VALID,95.2012,VALID,0,VALID,18.4745,VALID,10,VALID,0,
2011-03-09, 01:52:04,VALID,916.385,VALID,0,VALID,95.1326,VALID,0,VALID,18.455,VALID,10,VALID,0,
2011-03-09, 01:53:04,VALID,916.38,VALID,0,VALID,94.9954,VALID,0,VALID,18.3965,VALID,10,VALID,0.165234,
2011-03-09, 01:54:04,VALID,916.352,VALID,0,VALID,94.9192,VALID,0,VALID,18.338,VALID,10,VALID,0,
2011-03-09, 01:55:04,VALID,916.358,VALID,0,VALID,94.9649,VALID,0,VALID,18.3185,VALID,10,VALID,0,
2011-03-09, 01:56:04,VALID,916.353,VALID,0,VALID,95.1021,VALID,0,VALID,18.299,VALID,10,VALID,0,
2011-03-09, 01:57:04,VALID,916.346,VALID,0,VALID,95.2241,VALID,0,VALID,18.2796,VALID,10,VALID,0.304688,
2011-03-09, 01:58:04,VALID,916.349,VALID,0,VALID,95.3842,VALID,0,VALID,18.3004,VALID,10,VALID,0.342187,
2011-03-09, 01:59:04,VALID,916.347,VALID,0,VALID,95.4985,VALID,0,VALID,18.299,VALID,10,VALID,0.244141,
2011-03-09, 02:00:04,VALID,916.36,VALID,0,VALID,95.529,VALID,0,VALID,18.299,VALID,10,VALID,0,
2011-03-09, 02:01:04,VALID,916.342,VALID,0,VALID,95.4985,VALID,0,VALID,18.2601,VALID,10,VALID,0,
2011-03-09, 02:02:04,VALID,916.349,VALID,0,VALID,95.4604,VALID,0,VALID,18.2796,VALID,10,VALID,0,
2011-03-09, 02:03:04,VALID,916.336,VALID,0,VALID,95.4375,VALID,0,VALID,18.2809,VALID,10,VALID,0,
2011-03-09, 02:04:04,VALID,916.344,VALID,0,VALID,95.3461,VALID,0,VALID,18.2406,VALID,10,VALID,0,
2011-03-09, 02:05:04,VALID,916.314,VALID,0,VALID,95.3308,VALID,0,VALID,18.2601,VALID,10,VALID,0,
2011-03-09, 02:06:04,VALID,916.32,VALID,0,VALID,95.3003,VALID,0,VALID,18.2406,VALID,10,VALID,0,
2011-03-09, 02:07:04,VALID,916.319,VALID,0,VALID,95.2851,VALID,0,VALID,18.2211,VALID,10,VALID,0.0417969,
2011-03-09, 02:08:04,VALID,916.297,VALID,0,VALID,95.2317,VALID,0,VALID,18.2225,VALID,10,VALID,0,
2011-03-09, 02:09:04,VALID,916.269,VALID,0,VALID,95.186,VALID,0,VALID,18.1821,VALID,10,VALID,0.0625,
2011-03-09, 02:10:04,VALID,916.275,VALID,0,VALID,95.1783,VALID,0,VALID,18.203,VALID,10,VALID,0.330859,
2011-03-09, 02:11:04,VALID,916.243,VALID,0,VALID,95.186,VALID,0,VALID,18.1626,VALID,10,VALID,0.177734,
2011-03-09, 02:12:04,VALID,916.209,VALID,0,VALID,95.2622,VALID,0,VALID,18.1626,VALID,10,VALID,0.458984,
2011-03-09, 02:13:04,VALID,916.234,VALID,0,VALID,95.3384,VALID,0,VALID,18.1821,VALID,10,VALID,0.433203,
2011-03-09, 02:14:04,VALID,916.19,VALID,0,VALID,95.4528,VALID,0,VALID,18.2211,VALID,10,VALID,0.402344,
2011-03-09, 02:15:04,VALID,916.201,VALID,0,VALID,95.5367,VALID,0,VALID,18.2601,VALID,10,VALID,0.378516,
2011-03-09, 02:16:04,VALID,916.197,VALID,0,VALID,95.4909,VALID,0,VALID,18.2796,VALID,10,VALID,0.261328,
2011-03-09, 02:17:04,VALID,916.193,VALID,0,VALID,95.4604,VALID,0,VALID,18.2601,VALID,10,VALID,0.411719,
2011-03-09, 02:18:04,VALID,916.198,VALID,0,VALID,95.3994,VALID,0,VALID,18.2601,VALID,10,VALID,0.147656,
2011-03-09, 02:19:04,VALID,916.159,VALID,0,VALID,95.2393,VALID,0,VALID,18.2601,VALID,10,VALID,0,
2011-03-09, 02:20:04,VALID,916.144,VALID,0,VALID,95.0488,VALID,0,VALID,18.2225,VALID,10,VALID,0.00117188,
2011-03-09, 02:21:04,VALID,916.137,VALID,0,VALID,95.0945,VALID,0,VALID,18.2211,VALID,10,VALID,0.382813,
2011-03-09, 02:22:04,VALID,916.158,VALID,0,VALID,95.1402,VALID,0,VALID,18.242,VALID,10,VALID,0.274609,
2011-03-09, 02:23:04,VALID,916.156,VALID,0,VALID,95.0716,VALID,0,VALID,18.2016,VALID,10,VALID,0.384766,
2011-03-09, 02:24:04,VALID,916.134,VALID,0,VALID,95.1707,VALID,0,VALID,18.2211,VALID,10,VALID,0.631641,
2011-03-09, 02:25:04,VALID,916.18,VALID,0,VALID,95.3384,VALID,0,VALID,18.2796,VALID,10,VALID,0.423047,
2011-03-09, 02:26:04,VALID,916.152,VALID,0,VALID,95.3766,VALID,0,VALID,18.299,VALID,10,VALID,0.245312,
2011-03-09, 02:27:04,VALID,916.155,VALID,0,VALID,95.3308,VALID,0,VALID,18.3199,VALID,10,VALID,0.307422,
2011-03-09, 02:28:04,VALID,916.152,VALID,0,VALID,95.2317,VALID,0,VALID,18.3199,VALID,10,VALID,0.266797,
2011-03-09, 02:29:04,VALID,916.146,VALID,0,VALID,95.186,VALID,0,VALID,18.2796,VALID,10,VALID,0.323828,
2011-03-09, 02:30:04,VALID,916.138,VALID,0,VALID,95.1402,VALID,0,VALID,18.2796,VALID,10,VALID,0,
2011-03-09, 02:31:04,VALID,916.164,VALID,0,VALID,95.1936,VALID,0,VALID,18.2587,VALID,10,VALID,0.13125,
2011-03-09, 02:32:04,VALID,916.124,VALID,0,VALID,95.3003,VALID,0,VALID,18.299,VALID,10,VALID,0,
2011-03-09, 02:33:04,VALID,916.135,VALID,0,VALID,95.3156,VALID,0,VALID,18.3185,VALID,10,VALID,0,
2011-03-09, 02:34:04,VALID,916.118,VALID,0,VALID,95.3537,VALID,0,VALID,18.3185,VALID,10,VALID,0,
2011-03-09, 02:35:04,VALID,916.106,VALID,0,VALID,95.3766,VALID,0,VALID,18.338,VALID,10,VALID,0.160156,
2011-03-09, 02:36:04,VALID,916.138,VALID,0,VALID,95.2927,VALID,0,VALID,18.3575,VALID,10,VALID,0.193359,
2011-03-09, 02:37:04,VALID,916.124,VALID,0,VALID,95.2927,VALID,0,VALID,18.3965,VALID,10,VALID,0.325781,
2011-03-09, 02:38:04,VALID,916.152,VALID,0,VALID,95.2165,VALID,0,VALID,18.455,VALID,10,VALID,0.4375,
2011-03-09, 02:39:04,VALID,916.131,VALID,0,VALID,95.2012,VALID,0,VALID,18.533,VALID,11,VALID,0.335156,
2011-03-09, 02:40:04,VALID,916.137,VALID,0,VALID,95.1174,VALID,0,VALID,18.5734,VALID,10,VALID,0.526563,
2011-03-09, 02:41:04,VALID,916.114,VALID,0,VALID,94.9344,VALID,0,VALID,18.572,VALID,10,VALID,0.380078,
2011-03-09, 02:42:04,VALID,916.136,VALID,0,VALID,94.7286,VALID,0,VALID,18.6109,VALID,11,VALID,0.419141,
2011-03-09, 02:43:04,VALID,916.17,VALID,0,VALID,94.4922,VALID,0,VALID,18.6304,VALID,11,VALID,0.292188,
2011-03-09, 02:44:04,VALID,916.17,VALID,0,VALID,94.2635,VALID,0,VALID,18.6694,VALID,10,VALID,0.630469,
2011-03-09, 02:45:04,VALID,916.187,VALID,0,VALID,93.8671,VALID,0,VALID,18.6889,VALID,10,VALID,0.512891,
2011-03-09, 02:46:04,VALID,916.176,VALID,0,VALID,93.4402,VALID,0,VALID,18.7279,VALID,10,VALID,0.300391,
2011-03-09, 02:47:04,VALID,916.164,VALID,0,VALID,93.1505,VALID,0,VALID,18.7488,VALID,10,VALID,0.0945313,
2011-03-09, 02:48:04,VALID,916.128,VALID,0,VALID,92.8456,VALID,0,VALID,18.7474,VALID,10,VALID,0.279297,
2011-03-09, 02:49:04,VALID,916.141,VALID,0,VALID,92.472,VALID,0,VALID,18.7683,VALID,10,VALID,0.319922,
2011-03-09, 02:50:04,VALID,916.128,VALID,0,VALID,92.129,VALID,0,VALID,18.7474,VALID,10,VALID,0.451172,
2011-03-09, 02:51:04,VALID,916.157,VALID,0,VALID,91.7173,VALID,0,VALID,18.7279,VALID,10,VALID,0.34375,
2011-03-09, 02:52:04,VALID,916.133,VALID,0,VALID,92.0909,VALID,0,VALID,18.7293,VALID,10,VALID,0.298438,
2011-03-09, 02:53:04,VALID,916.127,VALID,0,VALID,92.4187,VALID,0,VALID,18.7293,VALID,10,VALID,0,
2011-03-09, 02:54:04,VALID,916.14,VALID,0,VALID,92.5864,VALID,0,VALID,18.6903,VALID,10,VALID,0.145313,
2011-03-09, 02:55:04,VALID,916.118,VALID,0,VALID,92.6016,VALID,0,VALID,18.6708,VALID,10,VALID,0.244141,
2011-03-09, 02:56:04,VALID,916.154,VALID,0,VALID,91.9155,VALID,0,VALID,18.6124,VALID,10,VALID,0.112109,
2011-03-09, 02:57:04,VALID,916.129,VALID,0,VALID,92.19,VALID,0,VALID,18.5135,VALID,10,VALID,0.161719,
2011-03-09, 02:58:04,VALID,916.126,VALID,0,VALID,92.4415,VALID,0,VALID,18.4564,VALID,10,VALID,0.340234,
2011-03-09, 02:59:04,VALID,916.121,VALID,0,VALID,93.1429,VALID,0,VALID,18.377,VALID,10,VALID,0.421094,
2011-03-09, 03:00:04,VALID,916.089,VALID,0,VALID,93.6689,VALID,0,VALID,18.3394,VALID,10,VALID,0.459766,
2011-03-09, 03:01:04,VALID,916.093,VALID,0,VALID,93.7985,VALID,0,VALID,18.2809,VALID,10,VALID,0.400781,
2011-03-09, 03:02:04,VALID,916.079,VALID,0,VALID,94.1111,VALID,0,VALID,18.2406,VALID,11,VALID,0.437109,
2011-03-09, 03:03:04,VALID,916.067,VALID,0,VALID,94.2712,VALID,0,VALID,18.2211,VALID,10,VALID,0.61875,
2011-03-09, 03:04:04,VALID,916.077,VALID,0,VALID,94.3626,VALID,0,VALID,18.2016,VALID,10,VALID,0.477344,
2011-03-09, 03:05:04,VALID,916.081,VALID,0,VALID,94.3703,VALID,0,VALID,18.1807,VALID,10,VALID,0.447656,
2011-03-09, 03:06:04,VALID,916.083,VALID,0,VALID,94.3321,VALID,0.107441,VALID,18.1612,VALID,10,VALID,0.352734,
2011-03-09, 03:07:04,VALID,916.093,VALID,0,VALID,94.2483,VALID,0.107441,VALID,18.1835,VALID,10,VALID,0.295703,
2011-03-09, 03:08:04,VALID,916.114,VALID,0,VALID,94.1721,VALID,0,VALID,18.1431,VALID,10,VALID,0.128516,
2011-03-09, 03:09:04,VALID,916.087,VALID,0,VALID,94.1721,VALID,0.107441,VALID,18.0833,VALID,10,VALID,0.336328,
2011-03-09, 03:10:04,VALID,916.086,VALID,0,VALID,93.8747,VALID,0,VALID,18.0651,VALID,10,VALID,0.405469,
2011-03-09, 03:11:04,VALID,916.079,VALID,0,VALID,93.8747,VALID,0,VALID,18.0067,VALID,10,VALID,0.420703,
2011-03-09, 03:12:04,VALID,916.12,VALID,0,VALID,94.1416,VALID,0,VALID,17.9677,VALID,10,VALID,0.381641,
2011-03-09, 03:13:04,VALID,916.093,VALID,0,VALID,94.3398,VALID,0.107441,VALID,17.9482,VALID,10,VALID,0.00585938,
2011-03-09, 03:14:04,VALID,916.11,VALID,0,VALID,94.4922,VALID,0,VALID,17.9287,VALID,10,VALID,0.124609,
2011-03-09, 03:15:04,VALID,916.079,VALID,0,VALID,94.6142,VALID,0,VALID,17.9092,VALID,10,VALID,0.0105469,
2011-03-09, 03:16:04,VALID,916.065,VALID,0,VALID,94.6523,VALID,0.107441,VALID,17.9092,VALID,10,VALID,0,
2011-03-09, 03:17:04,VALID,916.05,VALID,0,VALID,94.6981,VALID,0.107441,VALID,17.8897,VALID,10,VALID,0,
2011-03-09, 03:18:04,VALID,916.054,VALID,0,VALID,94.7591,VALID,0,VALID,17.8897,VALID,10,VALID,0,
2011-03-09, 03:19:04,VALID,916.038,VALID,0,VALID,94.8353,VALID,0,VALID,17.8702,VALID,10,VALID,0,
2011-03-09, 03:20:04,VALID,916.028,VALID,0,VALID,95.0106,VALID,0.107441,VALID,17.8897,VALID,10,VALID,0.0949219,
2011-03-09, 03:21:04,VALID,916.009,VALID,0,VALID,95.1479,VALID,0.107441,VALID,17.9079,VALID,10,VALID,0.412891,
2011-03-09, 03:22:04,VALID,915.981,VALID,0,VALID,95.1783,VALID,0.107441,VALID,17.9482,VALID,10,VALID,0.0449219,
2011-03-09, 03:23:04,VALID,915.978,VALID,0,VALID,95.0792,VALID,0.107441,VALID,17.9482,VALID,10,VALID,0,
2011-03-09, 03:24:04,VALID,915.986,VALID,0,VALID,95.0259,VALID,0,VALID,17.9886,VALID,10,VALID,0,
2011-03-09, 03:25:04,VALID,916.021,VALID,0,VALID,94.9801,VALID,0.107441,VALID,17.9872,VALID,10,VALID,0,
2011-03-09, 03:26:04,VALID,915.996,VALID,0,VALID,94.9496,VALID,0.107441,VALID,18.0067,VALID,10,VALID,0.160547,
2011-03-09, 03:27:04,VALID,915.986,VALID,0,VALID,94.8887,VALID,0.107441,VALID,18.0262,VALID,10,VALID,0,
2011-03-09, 03:28:04,VALID,915.997,VALID,0,VALID,94.8353,VALID,0.107441,VALID,18.0457,VALID,10,VALID,0.189063,
2011-03-09, 03:29:04,VALID,915.994,VALID,0,VALID,94.7438,VALID,0.107441,VALID,18.0651,VALID,10,VALID,0.291406,
2011-03-09, 03:30:04,VALID,915.954,VALID,0,VALID,94.5456,VALID,0,VALID,18.0846,VALID,10,VALID,0.286719,
2011-03-09, 03:31:04,VALID,915.973,VALID,0,VALID,94.2559,VALID,0,VALID,18.0651,VALID,10,VALID,0.388281,
2011-03-09, 03:32:04,VALID,915.94,VALID,0,VALID,94.0501,VALID,0,VALID,18.0846,VALID,10,VALID,0.541016,
2011-03-09, 03:33:04,VALID,915.939,VALID,0,VALID,93.8519,VALID,0,VALID,18.0651,VALID,10,VALID,0.430078,
2011-03-09, 03:34:04,VALID,915.892,VALID,0,VALID,93.7833,VALID,0,VALID,18.0262,VALID,10,VALID,0.617578,
2011-03-09, 03:35:04,VALID,915.866,VALID,0,VALID,93.9281,VALID,0,VALID,17.9872,VALID,10,VALID,0.710938,
2011-03-09, 03:36:04,VALID,915.841,VALID,0,VALID,94.1949,VALID,0,VALID,18.0262,VALID,10,VALID,0.692187,
2011-03-09, 03:37:04,VALID,915.825,VALID,0,VALID,94.1034,VALID,0,VALID,18.0457,VALID,10,VALID,0.679688,
2011-03-09, 03:38:04,VALID,915.811,VALID,0,VALID,94.1873,VALID,0,VALID,18.1041,VALID,10,VALID,0.776953,
2011-03-09, 03:39:04,VALID,915.82,VALID,0,VALID,94.0348,VALID,0,VALID,18.1431,VALID,10,VALID,0.780469,
2011-03-09, 03:40:04,VALID,915.813,VALID,0,VALID,93.9205,VALID,0,VALID,18.203,VALID,10,VALID,0.821875,
2011-03-09, 03:41:04,VALID,915.767,VALID,0,VALID,93.7299,VALID,0.107441,VALID,18.2211,VALID,10,VALID,0.704687,
2011-03-09, 03:42:04,VALID,915.748,VALID,0,VALID,93.5774,VALID,0.107441,VALID,18.2796,VALID,10,VALID,0.662891,
2011-03-09, 03:43:04,VALID,915.734,VALID,0,VALID,93.2954,VALID,0.107441,VALID,18.3199,VALID,10,VALID,0.636719,
2011-03-09, 03:44:04,VALID,915.72,VALID,0,VALID,93.2039,VALID,0,VALID,18.3589,VALID,10,VALID,0.713281,
2011-03-09, 03:45:04,VALID,915.721,VALID,0,VALID,93.242,VALID,0,VALID,18.377,VALID,10,VALID,0.851563,
2011-03-09, 03:46:04,VALID,915.682,VALID,0,VALID,93.1048,VALID,0,VALID,18.377,VALID,10,VALID,0.819922,